DLH8262 SBKP-SEQM

Flight info

Callsign DLH8262
Flight time N/A
Altitude 32000
Route GERTU UM775 UGAXO/N0486F340 UM775 RCO UN420 DAMDU DCT IQT UM776 QIT
Aircraft MD11/H-SDE1E2E3FGHIJ2J3J4J5M1RWXY/LB1D1

Departure

Time N/A
Airport Viracopos International Airport (SBKP)

Arrival

Time 2026-05-03 23:59
Airport Mariscal Sucre International Airport (SEQM)
Time Latitude Longitude Altitude Speed Heading
2026-05-03 23:03 -3.59913 -73.60205 33804 ft 495 kts 305°
2026-05-03 23:03 -3.57981 -73.63030 33887 ft 493 kts 305°
2026-05-03 23:04 -3.54110 -73.68694 33907 ft 493 kts 306°
2026-05-03 23:04 -3.50236 -73.74360 33908 ft 493 kts 306°
2026-05-03 23:05 -3.46360 -73.80030 33912 ft 493 kts 306°
2026-05-03 23:05 -3.42516 -73.85651 33911 ft 493 kts 306°
2026-05-03 23:06 -3.38640 -73.91317 33911 ft 493 kts 306°
2026-05-03 23:06 -3.34762 -73.96986 33916 ft 493 kts 306°
2026-05-03 23:07 -3.30884 -74.02654 33918 ft 493 kts 306°
2026-05-03 23:07 -3.27034 -74.08281 33915 ft 494 kts 306°
2026-05-03 23:08 -3.23149 -74.13956 33913 ft 494 kts 306°
2026-05-03 23:08 -3.19260 -74.19637 33919 ft 495 kts 306°
2026-05-03 23:09 -3.15371 -74.25315 33919 ft 495 kts 306°
2026-05-03 23:09 -3.11505 -74.30959 33916 ft 495 kts 306°
2026-05-03 23:10 -3.07621 -74.36628 33922 ft 495 kts 306°
2026-05-03 23:10 -3.03725 -74.42317 33925 ft 496 kts 306°
2026-05-03 23:11 -2.99824 -74.48011 33925 ft 496 kts 306°
2026-05-03 23:11 -2.95948 -74.53668 33922 ft 496 kts 306°
2026-05-03 23:12 -2.92046 -74.59364 33925 ft 497 kts 306°
2026-05-03 23:12 -2.88139 -74.65063 33932 ft 497 kts 306°
2026-05-03 23:13 -2.84232 -74.70764 33930 ft 497 kts 306°
2026-05-03 23:13 -2.80348 -74.76429 33930 ft 497 kts 306°
2026-05-03 23:14 -2.76443 -74.82124 33933 ft 497 kts 306°
2026-05-03 23:14 -2.72531 -74.87828 33934 ft 497 kts 306°
2026-05-03 23:15 -2.68622 -74.93526 33933 ft 497 kts 306°
2026-05-03 23:15 -2.64736 -74.99189 33935 ft 497 kts 306°
2026-05-03 23:16 -2.60827 -75.04887 33936 ft 497 kts 306°
2026-05-03 23:16 -2.56911 -75.10594 33937 ft 499 kts 306°
2026-05-03 23:17 -2.52977 -75.16325 33936 ft 500 kts 306°
2026-05-03 23:17 -2.49069 -75.22022 33938 ft 500 kts 306°
2026-05-03 23:18 -2.45130 -75.27761 33938 ft 500 kts 306°
2026-05-03 23:18 -2.41204 -75.33479 33941 ft 500 kts 306°
2026-05-03 23:19 -2.37269 -75.39209 33944 ft 500 kts 306°
2026-05-03 23:19 -2.33357 -75.44906 33944 ft 500 kts 306°
2026-05-03 23:20 -2.29424 -75.50635 33944 ft 500 kts 306°
2026-05-03 23:20 -2.25489 -75.56364 33947 ft 500 kts 306°
2026-05-03 23:21 -2.21557 -75.62089 33950 ft 500 kts 306°
2026-05-03 23:21 -2.17643 -75.67787 33950 ft 500 kts 306°
2026-05-03 23:22 -2.11734 -75.76389 33949 ft 501 kts 306°
2026-05-03 23:22 -2.07789 -75.82130 33952 ft 501 kts 306°
2026-05-03 23:23 -2.03864 -75.87842 33949 ft 502 kts 306°
2026-05-03 23:23 -1.99891 -75.93574 33952 ft 501 kts 308°
2026-05-03 23:24 -1.95727 -75.99157 33952 ft 501 kts 309°
2026-05-03 23:24 -1.91487 -76.04687 33944 ft 501 kts 309°
2026-05-03 23:25 -1.87293 -76.10173 33945 ft 500 kts 309°
2026-05-03 23:25 -1.83073 -76.15718 33944 ft 501 kts 309°
2026-05-03 23:26 -1.78852 -76.21271 33947 ft 502 kts 309°
2026-05-03 23:26 -1.74626 -76.26829 33945 ft 502 kts 309°
2026-05-03 23:27 -1.70429 -76.32348 33944 ft 502 kts 309°
2026-05-03 23:27 -1.66202 -76.37906 33944 ft 502 kts 309°
2026-05-03 23:28 -1.61975 -76.43462 33941 ft 502 kts 309°
2026-05-03 23:28 -1.57748 -76.49020 33942 ft 502 kts 309°
2026-05-03 23:29 -1.53555 -76.54532 33943 ft 501 kts 309°
2026-05-03 23:29 -1.49341 -76.60071 33944 ft 501 kts 309°
2026-05-03 23:30 -1.45118 -76.65618 33942 ft 501 kts 309°
2026-05-03 23:30 -1.40896 -76.71166 33941 ft 502 kts 309°
2026-05-03 23:31 -1.36700 -76.76679 33941 ft 502 kts 309°
2026-05-03 23:31 -1.32476 -76.82230 33936 ft 502 kts 309°
2026-05-03 23:32 -1.28252 -76.87781 33934 ft 502 kts 309°
2026-05-03 23:32 -1.24021 -76.93339 33936 ft 503 kts 309°
2026-05-03 23:33 -1.19833 -76.98841 33938 ft 503 kts 309°
2026-05-03 23:33 -1.15599 -77.04404 33936 ft 503 kts 309°
2026-05-03 23:34 -1.11363 -77.09969 33939 ft 503 kts 309°
2026-05-03 23:34 -1.07136 -77.15522 33937 ft 502 kts 309°
2026-05-03 23:35 -1.02941 -77.21032 33936 ft 502 kts 309°
2026-05-03 23:35 -0.98719 -77.26577 33943 ft 501 kts 309°
2026-05-03 23:36 -0.94497 -77.32121 33941 ft 501 kts 309°
2026-05-03 23:36 -0.90276 -77.37663 33958 ft 501 kts 309°
2026-05-03 23:37 -0.86080 -77.43173 33989 ft 501 kts 309°
2026-05-03 23:37 -0.81859 -77.48717 33988 ft 501 kts 309°
2026-05-03 23:38 -0.77638 -77.54259 34031 ft 501 kts 309°
2026-05-03 23:38 -0.73415 -77.59804 34084 ft 502 kts 309°
2026-05-03 23:39 -0.68863 -77.65035 34083 ft 502 kts 317°
2026-05-03 23:39 -0.63901 -77.69867 33871 ft 486 kts 319°
2026-05-03 23:40 -0.61489 -77.72170 33364 ft 474 kts 319°
2026-05-03 23:40 -0.59130 -77.74433 32761 ft 469 kts 318°
2026-05-03 23:40 -0.56793 -77.76692 32125 ft 466 kts 318°
2026-05-03 23:40 -0.54465 -77.78955 31497 ft 467 kts 318°
2026-05-03 23:41 -0.52143 -77.81222 30940 ft 468 kts 317°
2026-05-03 23:41 -0.49814 -77.83500 30318 ft 468 kts 317°
2026-05-03 23:41 -0.47518 -77.85749 29618 ft 469 kts 317°
2026-05-03 23:41 -0.45189 -77.88031 28976 ft 470 kts 317°
2026-05-03 23:42 -0.42853 -77.90319 28353 ft 471 kts 317°
2026-05-03 23:42 -0.40512 -77.92611 27721 ft 472 kts 317°
2026-05-03 23:42 -0.38170 -77.94905 27096 ft 473 kts 317°
2026-05-03 23:42 -0.35817 -77.97209 26490 ft 474 kts 317°
2026-05-03 23:43 -0.33471 -77.99506 25870 ft 474 kts 317°
2026-05-03 23:43 -0.31126 -78.01803 25222 ft 471 kts 317°
2026-05-03 23:43 -0.28825 -78.04056 24601 ft 466 kts 317°
2026-05-03 23:43 -0.26526 -78.06307 23961 ft 460 kts 316°
2026-05-03 23:44 -0.24257 -78.08529 23260 ft 454 kts 316°
2026-05-03 23:44 -0.22014 -78.10726 22596 ft 450 kts 317°
2026-05-03 23:44 -0.19812 -78.12883 21978 ft 448 kts 316°
2026-05-03 23:44 -0.17598 -78.15053 21357 ft 443 kts 317°
2026-05-03 23:45 -0.15405 -78.17199 20753 ft 440 kts 317°
2026-05-03 23:45 -0.13219 -78.19338 20145 ft 438 kts 317°
2026-05-03 23:45 -0.11084 -78.21426 19624 ft 433 kts 317°
2026-05-03 23:45 -0.08941 -78.23524 19289 ft 430 kts 317°
2026-05-03 23:46 -0.06813 -78.25606 18943 ft 427 kts 317°
2026-05-03 23:46 -0.04708 -78.27667 18624 ft 418 kts 317°
2026-05-03 23:46 -0.02677 -78.29658 18361 ft 399 kts 317°
2026-05-03 23:46 -0.00752 -78.31545 18302 ft 376 kts 317°
2026-05-03 23:47 0.00461 -78.32733 18262 ft 362 kts 317°
2026-05-03 23:47 0.02207 -78.34443 18259 ft 341 kts 317°
2026-05-03 23:47 0.04378 -78.36568 18134 ft 322 kts 317°
2026-05-03 23:47 0.05948 -78.38104 17972 ft 309 kts 317°
2026-05-03 23:48 0.07448 -78.39571 17938 ft 297 kts 317°
2026-05-03 23:48 0.08899 -78.40990 17919 ft 292 kts 317°
2026-05-03 23:48 0.10204 -78.42530 17869 ft 291 kts 297°
2026-05-03 23:48 0.10698 -78.43773 17825 ft 295 kts 290°
2026-05-03 23:49 0.11377 -78.45715 17163 ft 298 kts 290°
2026-05-03 23:49 0.12105 -78.47664 16303 ft 299 kts 290°
2026-05-03 23:49 0.12857 -78.49606 15462 ft 300 kts 291°
2026-05-03 23:49 0.13867 -78.52178 14396 ft 300 kts 291°
2026-05-03 23:50 0.14655 -78.54077 13897 ft 289 kts 298°
2026-05-03 23:50 0.15432 -78.55161 13605 ft 280 kts 316°
2026-05-03 23:50 0.17002 -78.56165 13247 ft 271 kts 343°
2026-05-03 23:50 0.18966 -78.56389 12769 ft 293 kts 10°
2026-05-03 23:51 0.20796 -78.55759 12403 ft 266 kts 35°
2026-05-03 23:51 0.21999 -78.54512 12032 ft 239 kts 63°
2026-05-03 23:51 0.22346 -78.53024 11780 ft 213 kts 96°
2026-05-03 23:51 0.21484 -78.51346 11700 ft 210 kts 139°
2026-05-03 23:52 0.20283 -78.50494 11680 ft 214 kts 144°
2026-05-03 23:52 0.19447 -78.49932 11664 ft 215 kts 144°
2026-05-03 23:52 0.18221 -78.49099 11594 ft 217 kts 144°
2026-05-03 23:52 0.16968 -78.48247 11533 ft 218 kts 144°
2026-05-03 23:53 0.15714 -78.47396 11483 ft 217 kts 143°
2026-05-03 23:53 0.14471 -78.46551 11441 ft 215 kts 144°
2026-05-03 23:53 0.13231 -78.45709 11385 ft 216 kts 144°
2026-05-03 23:53 0.11992 -78.44866 11321 ft 216 kts 144°
2026-05-03 23:54 0.10744 -78.44018 11224 ft 216 kts 143°
2026-05-03 23:54 0.09522 -78.43186 11139 ft 216 kts 144°
2026-05-03 23:54 0.08302 -78.42313 11050 ft 215 kts 140°
2026-05-03 23:54 0.07155 -78.41369 10943 ft 213 kts 136°
2026-05-03 23:55 0.06068 -78.40355 10843 ft 214 kts 133°
2026-05-03 23:55 0.05029 -78.39290 10782 ft 215 kts 131°
2026-05-03 23:55 0.04019 -78.38180 10683 ft 216 kts 130°
2026-05-03 23:55 0.03013 -78.37074 10535 ft 216 kts 135°
2026-05-03 23:56 0.01766 -78.36239 10234 ft 217 kts 158°
2026-05-03 23:56 0.00313 -78.35949 9878 ft 218 kts 175°
2026-05-03 23:56 -0.01202 -78.35900 9715 ft 216 kts 177°
2026-05-03 23:56 -0.02640 -78.35864 9440 ft 196 kts 176°
2026-05-03 23:57 -0.03960 -78.35797 9181 ft 188 kts 176°
2026-05-03 23:57 -0.05249 -78.35737 8915 ft 184 kts 175°
2026-05-03 23:57 -0.06522 -78.35683 8682 ft 184 kts 176°
2026-05-03 23:57 -0.07799 -78.35630 8412 ft 185 kts 175°
2026-05-03 23:58 -0.09079 -78.35574 8144 ft 185 kts 175°
2026-05-03 23:58 -0.10373 -78.35521 7883 ft 187 kts 176°
2026-05-03 23:58 -0.11580 -78.35471 7829 ft 157 kts 178°
2026-05-03 23:58 -0.12553 -78.35436 7861 ft 125 kts 179°
2026-05-03 23:59 -0.13204 -78.35410 7890 ft 61 kts 178°
2026-05-03 23:59 -0.13482 -78.35446 7896 ft 24 kts 202°
2026-05-03 23:59 -0.13578 -78.35501 7898 ft 9 kts 224°
2026-05-03 23:59 -0.13583 -78.35543 7907 ft 3 kts 286°
2026-05-04 00:00 -0.13573 -78.35555 7900 ft 3 kts 315°
2026-05-04 00:00 -0.13541 -78.35564 7897 ft 6 kts 353°
2026-05-04 00:00 -0.13470 -78.35571 7894 ft 15 kts 355°
2026-05-04 00:00 -0.13349 -78.35573 7893 ft 21 kts 360°
2026-05-04 00:01 -0.13190 -78.35580 7890 ft 24 kts 356°
2026-05-04 00:01 -0.13023 -78.35588 7881 ft 24 kts 358°
2026-05-04 00:01 -0.12882 -78.35594 7876 ft 17 kts 357°
2026-05-04 00:01 -0.12757 -78.35600 7871 ft 19 kts 356°
2026-05-04 00:02 -0.12698 -78.35638 7866 ft 7 kts 290°
2026-05-04 00:02 -0.12704 -78.35670 7862 ft 1 kts 226°
2026-05-04 00:02 -0.12738 -78.35678 7864 ft 12 kts 188°
2026-05-04 00:02 -0.12844 -78.35676 7872 ft 14 kts 176°
2026-05-04 00:03 -0.12884 -78.35675 7874 ft 0 kts 184°
2026-05-04 00:03 -0.12890 -78.35679 7875 ft 3 kts 206°
2026-05-04 00:03 -0.12904 -78.35710 7875 ft 3 kts 262°
2026-05-04 00:03 -0.12907 -78.35745 7874 ft 6 kts 268°
2026-05-04 00:04 -0.12907 -78.35752 7873 ft 0 kts 267°